Ostend, Belgium

11:03 PM CEST on October 18, 2017 (GMT +0200)
Ostend

Weather History for EBOS - December, 2012

Change the Weather History Date:

Friday, December 21, 2012

  Actual Average Record
Temperature  
Mean Temperature 44 °F -  
Max Temperature 48 °F 42 °F 54 °F (2015)
Min Temperature 41 °F 33 °F 21 °F (2007)
Degree Days  
Heating Degree Days 20    
Moisture  
Dew Point 42 °F    
Average Humidity 89    
Maximum Humidity 93    
Minimum Humidity 81    
Precipitation  
Precipitation 0.00 in - - ()
Sea Level Pressure  
Sea Level Pressure 29.82 in    
Wind  
Wind Speed 7 mph ()    
Max Wind Speed 13 mph    
Max Gust Speed -    
Visibility 5.6 miles    
Events Fog , Rain    
Averages and records for this station are not official NWS values.
T = Trace of Precipitation, MM = Missing Value Source: Averaged Metar Reports

Daily Weather History Graph

Daily Weather History Graph

Search for Another Location

Airport or City:

Trip Planner

Search our weather history database for the weather conditions in past years. The results will help you decide how hot, cold, wet, or windy it might be!

Date:

Astronomy

Dec. 21, 2012 Rise Set
Actual Time 8:50 AM CET 4:43 PM CET
Civil Twilight 8:10 AM CET 5:23 PM CET
Nautical Twilight 7:27 AM CET 6:06 PM CET
Astronomical Twilight 6:47 AM CET 6:46 PM CET
Moon 12:51 PM CET (12/21) 1:50 AM CET (12/21)
Length of Visible Light 9h 12m
Length of Day
7h 52m
Waxing Gibbous, 62% of the Moon is Illuminated
Dec 21
Waxing Gibbous
Dec 28
Full
Jan 5
Last Quarter
Jan 11
New
Jan 19
First Quarter

Hourly Weather History & Observations

Time (CET) Temp. Windchill Dew Point Humidity Pressure Visibility Wind Dir Wind Speed Gust Speed Precip Events Conditions
12:20 AM 46.4 °F 41.9 °F 42.8 °F 87% 29.65 in 5.0 mi SSW 9.2 mph - N/A   Mostly Cloudy
12:50 AM 46.4 °F 41.5 °F 42.8 °F 87% 29.65 in 5.6 mi SSW 10.4 mph - N/A   Mostly Cloudy
1:00 AM 46 °F - 43 °F 87% 29.68 in 6 mi SSW 11.2 mph - -   Partly Cloudy
1:20 AM 46.4 °F 41.5 °F 42.8 °F 87% 29.65 in 6.2 mi SSW 10.4 mph - N/A   Scattered Clouds
1:50 AM 44.6 °F 39.7 °F 42.8 °F 93% 29.68 in 6.2 mi SSW 9.2 mph - N/A   Scattered Clouds
2:20 AM 44.6 °F 40.7 °F 42.8 °F 93% 29.68 in 6.2 mi SSW 6.9 mph - N/A   Scattered Clouds
2:50 AM 44.6 °F 40.7 °F 42.8 °F 93% 29.68 in 6.2 mi SSW 6.9 mph - N/A   Scattered Clouds
3:20 AM 44.6 °F 40.2 °F 42.8 °F 93% 29.68 in 6.2 mi SSW 8.1 mph - N/A   Scattered Clouds
3:50 AM 44.6 °F 40.7 °F 42.8 °F 93% 29.71 in 6.2 mi SSW 6.9 mph - N/A   Scattered Clouds
4:00 AM 45 °F - 42 °F 87% 29.71 in 6 mi SSW 6.7 mph - -   Mostly Cloudy
4:20 AM 44.6 °F 42.2 °F 42.8 °F 93% 29.71 in 6.2 mi SSW 4.6 mph - N/A   Scattered Clouds
4:50 AM 44.6 °F 41.4 °F 41.0 °F 87% 29.71 in 6.2 mi SSW 5.8 mph - N/A   Scattered Clouds
5:20 AM 42.8 °F 39.3 °F 41.0 °F 93% 29.71 in 5.0 mi SSW 5.8 mph - N/A   Scattered Clouds
5:50 AM 42.8 °F 39.3 °F 39.2 °F 87% 29.71 in 5.0 mi SSW 5.8 mph - N/A   Scattered Clouds
6:20 AM 41.0 °F 38.0 °F 39.2 °F 93% 29.71 in 5.0 mi SSW 4.6 mph - N/A   Scattered Clouds
6:50 AM 41.0 °F 37.1 °F 39.2 °F 93% 29.71 in 2.8 mi SSW 5.8 mph - N/A Fog Fog
7:00 AM 42 °F - 39 °F 85% 29.73 in 3 mi SSW 4.5 mph - - Fog Patches of Fog
7:20 AM 41.0 °F 37.1 °F 39.2 °F 93% 29.71 in 2.8 mi SW 5.8 mph - N/A   Partly Cloudy
7:50 AM 42.8 °F 39.3 °F 39.2 °F 87% 29.74 in 3.1 mi SSW 5.8 mph - N/A   Partly Cloudy
8:20 AM 41.0 °F 36.4 °F 39.2 °F 93% 29.74 in 3.7 mi SW 6.9 mph - N/A   Partly Cloudy
8:50 AM 42.8 °F 38.6 °F 39.2 °F 87% 29.74 in 3.7 mi SSW 6.9 mph - N/A   Scattered Clouds
9:20 AM 42.8 °F 39.3 °F 39.2 °F 87% 29.77 in 4.3 mi SSW 5.8 mph - N/A   Scattered Clouds
9:50 AM 42.8 °F 39.3 °F 41.0 °F 93% 29.77 in 5.0 mi SW 5.8 mph - N/A   Mostly Cloudy
10:00 AM 43 °F - 40 °F 85% 29.80 in 5 mi SW 6.7 mph - -   Mostly Cloudy
10:20 AM 44.6 °F 41.4 °F 41.0 °F 87% 29.80 in 5.0 mi SSW 5.8 mph - N/A   Mostly Cloudy
10:50 AM 44.6 °F 41.4 °F 42.8 °F 93% 29.80 in 4.3 mi SSW 5.8 mph - N/A   Mostly Cloudy
11:20 AM 44.6 °F 41.4 °F 42.8 °F 93% 29.80 in 4.3 mi SSW 5.8 mph - N/A Rain Light Rain Showers
11:50 AM 46.4 °F 42.9 °F 42.8 °F 87% 29.83 in 5.0 mi SSW 6.9 mph - N/A   Mostly Cloudy
12:20 PM 46.4 °F 42.4 °F 44.6 °F 93% 29.83 in 5.0 mi SW 8.1 mph - N/A   Mostly Cloudy
12:50 PM 46.4 °F 42.4 °F 44.6 °F 93% 29.83 in 4.3 mi SW 8.1 mph - N/A Rain Light Rain
1:00 PM 47 °F - 44 °F 85% 29.84 in 4 mi SW 8.9 mph - - Rain Light Rain
1:20 PM 48.2 °F - 44.6 °F 87% 29.83 in 6.2 mi WSW 8.1 mph - N/A   Mostly Cloudy
1:50 PM 48.2 °F - 44.6 °F 87% 29.83 in 6.2 mi WSW 10.4 mph - N/A   Mostly Cloudy
2:20 PM 48.2 °F - 44.6 °F 87% 29.86 in 6.2 mi West 11.5 mph - N/A   Partly Cloudy
2:50 PM 48.2 °F - 44.6 °F 87% 29.86 in 6.2 mi WSW 10.4 mph - N/A   Mostly Cloudy
3:20 PM 46.4 °F 41.1 °F 44.6 °F 93% 29.86 in 6.2 mi WSW 11.5 mph - N/A   Mostly Cloudy
3:50 PM 46.4 °F 41.5 °F 42.8 °F 87% 29.86 in 6.2 mi WSW 10.4 mph - N/A   Mostly Cloudy
4:00 PM 47 °F - 44 °F 83% 29.88 in 10 mi WSW 8.9 mph - -   Partly Cloudy
4:20 PM 46.4 °F 41.5 °F 42.8 °F 87% 29.89 in 6.2 mi WSW 10.4 mph - N/A   Partly Cloudy
4:50 PM 46.4 °F 42.4 °F 42.8 °F 87% 29.89 in 6.2 mi WSW 8.1 mph - N/A   Mostly Cloudy
5:20 PM 46.4 °F 41.9 °F 42.8 °F 87% 29.89 in 6.2 mi WSW 9.2 mph - N/A   Mostly Cloudy
5:50 PM 46.4 °F 40.7 °F 42.8 °F 87% 29.92 in 6.2 mi WSW 12.7 mph - N/A   Scattered Clouds
6:20 PM 46.4 °F 41.1 °F 42.8 °F 87% 29.92 in 6.2 mi WSW 11.5 mph - N/A   Mostly Cloudy
6:50 PM 46.4 °F 41.5 °F 42.8 °F 87% 29.92 in 6.2 mi SW 10.4 mph - N/A   Mostly Cloudy
7:00 PM 47 °F - 43 °F 81% 29.94 in 9 mi SW 8.9 mph - -   Partly Cloudy
7:20 PM 44.6 °F 40.2 °F 41.0 °F 87% 29.92 in 6.2 mi SW 8.1 mph - N/A   Partly Cloudy
7:50 PM 44.6 °F 40.2 °F 41.0 °F 87% 29.95 in 6.2 mi SW 8.1 mph - N/A   Scattered Clouds
8:20 PM 44.6 °F 39.7 °F 41.0 °F 87% 29.95 in 6.2 mi SW 9.2 mph - N/A   Scattered Clouds
8:50 PM 44.6 °F 39.7 °F 41.0 °F 87% 29.95 in 6.2 mi SW 9.2 mph - N/A   Mostly Cloudy
9:20 PM 44.6 °F 39.7 °F 41.0 °F 87% 29.95 in 6.2 mi SW 9.2 mph - N/A   Mostly Cloudy
9:50 PM 42.8 °F 38.0 °F 41.0 °F 93% 29.98 in 6.2 mi SW 8.1 mph - N/A   Mostly Cloudy
10:00 PM 44 °F - 41 °F 83% 29.99 in 7 mi SW 6.7 mph - -   Mostly Cloudy
10:20 PM 44.6 °F 39.7 °F 41.0 °F 87% 29.98 in 6.2 mi SW 9.2 mph - N/A   Mostly Cloudy
10:50 PM 42.8 °F 38.6 °F 39.2 °F 87% 29.98 in 6.2 mi SW 6.9 mph - N/A   Mostly Cloudy
11:20 PM 41.0 °F 35.8 °F 39.2 °F 93% 29.98 in 6.2 mi SSW 8.1 mph - N/A   Mostly Cloudy
11:50 PM 41.0 °F 36.4 °F 39.2 °F 93% 29.98 in 6.2 mi SW 6.9 mph - N/A   Mostly Cloudy